This is the latest recevied weather packets stored in our database for station/object K9YK-13. If no packets are shown the sender has not sent any weather packets the latest 10 day(s).
| Time | Temp. | Humidity | Pressure | Rain* | Wind** | Luminosity | Snow |
|---|---|---|---|---|---|---|---|
| 1777776971 | 6.11° C | 75% | 0 hPa | 0 mm | - | - | - |
| 1777776671 | 6.11° C | 76% | 0 hPa | 0 mm | - | - | - |
| 1777776371 | 5.56° C | 79% | 0 hPa | 0 mm | - | - | - |
| 1777776071 | 8.33° C | 75% | 0 hPa | 0 mm | - | - | - |
| 1777775771 | 7.22° C | 69% | 0 hPa | 0 mm | - | - | - |
| 1777775471 | 8.89° C | 68% | 0 hPa | 0 mm | - | - | - |
| 1777775171 | 8.89° C | 67% | 0 hPa | 0 mm | - | - | - |
| 1777774871 | 8.89° C | 66% | 0 hPa | 0 mm | - | - | - |
| 1777774571 | 8.89° C | 65% | 0 hPa | 0 mm | - | - | - |
| 1777774271 | 9.44° C | 65% | 0 hPa | 0 mm | - | - | - |
| 1777773971 | 8.33° C | 63% | 0 hPa | 0 mm | - | - | - |
| 1777773671 | 8.33° C | 63% | 0 hPa | 0 mm | - | - | - |
| 1777773371 | 8.33° C | 60% | 0 hPa | 0 mm | - | - | - |
| 1777773071 | 8.33° C | 61% | 0 hPa | 0 mm | - | - | - |
| 1777772771 | 8.89° C | 58% | 0 hPa | 0 mm | - | - | - |
| 1777772471 | 8.89° C | 59% | 0 hPa | 0 mm | - | - | - |
| 1777772171 | 8.33° C | 58% | 0 hPa | 0 mm | - | - | - |
| 1777771871 | 10° C | 58% | 0 hPa | 0 mm | - | - | - |
| 1777771571 | 8.33° C | 57% | 0 hPa | 0 mm | - | - | - |
| 1777771271 | 10° C | 57% | 0 hPa | 0 mm | - | - | - |
| 1777770971 | 10° C | 57% | 0 hPa | 0 mm | - | - | - |
| 1777770671 | 10° C | 58% | 0 hPa | 0 mm | - | - | - |
| 1777770371 | 10.56° C | 56% | 0 hPa | 0 mm | - | - | - |
| 1777770071 | 10.56° C | 54% | 0 hPa | 0 mm | - | - | - |
| 1777769771 | 10.56° C | 55% | 0 hPa | 0 mm | - | - | - |
* Rain latest hour (hover to see other rain measurements)
** Current wind speed in m/s (hover to see current wind gust speed)